| time (UTC) | temp F | wind direction | speed MPH | gust MPH | rain 1hr in | rain 24hr in | rain mn in | humidity % | barometer mb |
| 20260906114949 | 70 | 161 | 1.0 | 7.0 | 0.00 | 0.00 | 0.00 | 32 | 1006.5 |
| 20260906114441 | 71 | 249 | 1.0 | 7.0 | 0.00 | 0.00 | 0.00 | 32 | 1006.5 |
| 20260906113946 | 71 | 182 | 2.0 | 8.0 | 0.00 | 0.00 | 0.00 | 31 | 1006.5 |
| 20260906113456 | 71 | 257 | 2.0 | 8.0 | 0.00 | 0.00 | 0.00 | 31 | 1006.4 |
| 20260906112956 | 71 | 206 | 2.0 | 8.0 | 0.00 | 0.00 | 0.00 | 31 | 1006.5 |
| 20260906112452 | 71 | 289 | 2.0 | 8.0 | 0.00 | 0.00 | 0.00 | 31 | 1006.5 |
| 20260906111948 | 71 | 212 | 1.0 | 6.0 | 0.00 | 0.00 | 0.00 | 31 | 1006.5 |
| 20260906111437 | 72 | 193 | 1.0 | 6.0 | 0.00 | 0.00 | 0.00 | 31 | 1006.6 |
| 20260906110946 | 72 | 265 | 2.0 | 7.0 | 0.00 | 0.00 | 0.00 | 30 | 1006.6 |
| 20260906110450 | 72 | 250 | 2.0 | 7.0 | 0.00 | 0.00 | 0.00 | 30 | 1006.6 |
| 20260906105933 | 72 | 244 | 2.0 | 7.0 | 0.00 | 0.00 | 0.00 | 30 | 1006.5 |
| 20260906105431 | 72 | 241 | 2.0 | 7.0 | 0.00 | 0.00 | 0.00 | 30 | 1006.4 |
| 20260906104253 | 72 | 163 | 2.0 | 7.0 | 0.00 | 0.00 | 0.00 | 30 | 1006.4 |
| 20260906103735 | 72 | 175 | 2.0 | 7.0 | 0.00 | 0.00 | 0.00 | 31 | 1006.5 |
| 20260906103225 | 72 | 192 | 2.0 | 6.0 | 0.00 | 0.00 | 0.00 | 30 | 1006.4 |
| 20260906102053 | 72 | 232 | 2.0 | 8.0 | 0.00 | 0.00 | 0.00 | 30 | 1006.4 |
| 20260906101559 | 72 | 173 | 2.0 | 8.0 | 0.00 | 0.00 | 0.00 | 30 | 1006.3 |
| 20260906101045 | 72 | 204 | 1.0 | 7.0 | 0.00 | 0.00 | 0.00 | 30 | 1006.3 |
| 20260906100550 | 72 | 173 | 0.0 | 7.0 | 0.00 | 0.00 | 0.00 | 30 | 1006.3 |
| 20260906100059 | 72 | 258 | 1.0 | 7.0 | 0.00 | 0.00 | 0.00 | 30 | 1006.3 |
| 20260906094930 | 71 | 192 | 2.0 | 7.0 | 0.00 | 0.00 | 0.00 | 30 | 1006.3 |
| 20260906094411 | 71 | 223 | 1.0 | 5.0 | 0.00 | 0.00 | 0.00 | 31 | 1006.3 |
| 20260906093908 | 70 | 178 | 0.0 | 4.0 | 0.00 | 0.00 | 0.00 | 32 | 1006.2 |
| 20260906093359 | 70 | 259 | 0.0 | 3.0 | 0.00 | 0.00 | 0.00 | 32 | 1006.2 |
| 20260906092905 | 70 | 261 | 0.0 | 0.0 | 0.00 | 0.00 | 0.00 | 32 | 1006.2 |
| 20260906092401 | 70 | 256 | 0.0 | 1.0 | 0.00 | 0.00 | 0.00 | 32 | 1006.1 |
| 20260906091859 | 71 | 270 | 0.0 | 0.0 | 0.00 | 0.00 | 0.00 | 32 | 1006.1 |
| 20260906090748 | 71 | 223 | 0.0 | 5.0 | 0.00 | 0.00 | 0.00 | 31 | 1006.2 |
| 20260906090244 | 71 | 256 | 0.0 | 3.0 | 0.00 | 0.00 | 0.00 | 31 | 1006.1 |
| 20260906085724 | 71 | 272 | 0.0 | 2.0 | 0.00 | 0.00 | 0.00 | 31 | 1006.1 |
| 20260906085234 | 71 | 265 | 0.0 | 2.0 | 0.00 | 0.00 | 0.00 | 30 | 1006.2 |
| 20260906084722 | 72 | 261 | 0.0 | 4.0 | 0.00 | 0.00 | 0.00 | 30 | 1006.0 |
| 20260906084225 | 72 | 265 | 0.0 | 6.0 | 0.00 | 0.00 | 0.00 | 30 | 1006.0 |
| 20260906083708 | 72 | 271 | 1.0 | 6.0 | 0.00 | 0.00 | 0.00 | 30 | 1006.1 |
| 20260906082601 | 73 | 213 | 2.0 | 7.0 | 0.00 | 0.00 | 0.00 | 29 | 1006.0 |
| 20260906082107 | 73 | 261 | 2.0 | 7.0 | 0.00 | 0.00 | 0.00 | 29 | 1006.0 |
| 20260906081606 | 73 | 253 | 2.0 | 7.0 | 0.00 | 0.00 | 0.00 | 29 | 1005.9 |
| 20260906081059 | 73 | 253 | 2.0 | 7.0 | 0.00 | 0.00 | 0.00 | 29 | 1005.9 |
| 20260906080558 | 73 | 231 | 1.0 | 7.0 | 0.00 | 0.00 | 0.00 | 28 | 1006.0 |
| 20260906080046 | 73 | 204 | 0.0 | 8.0 | 0.00 | 0.00 | 0.00 | 27 | 1005.9 |
| 20260906075547 | 73 | 263 | 1.0 | 8.0 | 0.00 | 0.00 | 0.00 | 27 | 1005.9 |
| 20260906075033 | 73 | 224 | 2.0 | 8.0 | 0.00 | 0.00 | 0.00 | 26 | 1006.0 |
| 20260906074521 | 73 | 222 | 1.0 | 8.0 | 0.00 | 0.00 | 0.00 | 27 | 1006.0 |
| 20260906074009 | 72 | 225 | 1.0 | 5.0 | 0.00 | 0.00 | 0.00 | 28 | 1006.0 |
| 20260906073456 | 72 | 240 | 1.0 | 6.0 | 0.00 | 0.00 | 0.00 | 28 | 1006.0 |
| 20260906072959 | 72 | 244 | 1.0 | 6.0 | 0.00 | 0.00 | 0.00 | 29 | 1005.9 |
| 20260906072444 | 72 | 249 | 1.0 | 6.0 | 0.00 | 0.00 | 0.00 | 29 | 1005.9 |
| 20260906071934 | 72 | 244 | 1.0 | 6.0 | 0.00 | 0.00 | 0.00 | 30 | 1005.9 |
| 20260906071422 | 71 | 195 | 0.0 | 4.0 | 0.00 | 0.00 | 0.00 | 30 | 1005.9 |
| 20260906070914 | 71 | 252 | 0.0 | 3.0 | 0.00 | 0.00 | 0.00 | 30 | 1005.9 |
| 20260906070405 | 71 | 233 | 0.0 | 4.0 | 0.00 | 0.00 | 0.00 | 30 | 1005.9 |
| 20260906065858 | 72 | 244 | 0.0 | 4.0 | 0.00 | 0.00 | 0.00 | 29 | 1005.9 |
| 20260906065405 | 72 | 174 | 0.0 | 4.0 | 0.00 | 0.00 | 0.00 | 29 | 1005.9 |
| 20260906064853 | 72 | 255 | 0.0 | 4.0 | 0.00 | 0.00 | 0.00 | 29 | 1005.9 |
| 20260906064402 | 72 | 223 | 0.0 | 2.0 | 0.00 | 0.00 | 0.00 | 28 | 1005.9 |
| 20260906063853 | 72 | 251 | 0.0 | 2.0 | 0.00 | 0.00 | 0.00 | 28 | 1005.9 |
| 20260906062753 | 73 | 257 | 0.0 | 3.0 | 0.00 | 0.00 | 0.00 | 27 | 1005.7 |
| 20260906062233 | 73 | 269 | 1.0 | 5.0 | 0.00 | 0.00 | 0.00 | 28 | 1005.7 |
| 20260906061125 | 74 | 249 | 1.0 | 4.0 | 0.00 | 0.00 | 0.00 | 28 | 1005.7 |
| 20260906060630 | 74 | 277 | 0.0 | 4.0 | 0.00 | 0.00 | 0.00 | 27 | 1005.6 |
| 20260906060132 | 74 | 242 | 0.0 | 2.0 | 0.00 | 0.00 | 0.00 | 27 | 1005.6 |
| 20260906055631 | 74 | 265 | 1.0 | 4.0 | 0.00 | 0.00 | 0.00 | 26 | 1005.6 |
| 20260906055128 | 74 | 216 | 1.0 | 4.0 | 0.00 | 0.00 | 0.00 | 26 | 1005.5 |
| 20260906054631 | 74 | 270 | 1.0 | 3.0 | 0.00 | 0.00 | 0.00 | 25 | 1005.5 |
| 20260906054119 | 74 | 278 | 0.0 | 3.0 | 0.00 | 0.00 | 0.00 | 25 | 1005.5 |
| 20260906053623 | 74 | 263 | 0.0 | 2.0 | 0.00 | 0.00 | 0.00 | 25 | 1005.4 |
| 20260906053119 | 74 | 270 | 0.0 | 3.0 | 0.00 | 0.00 | 0.00 | 25 | 1005.5 |
| 20260906052604 | 74 | 260 | 0.0 | 2.0 | 0.00 | 0.00 | 0.00 | 24 | 1005.4 |
| 20260906052051 | 74 | 280 | 0.0 | 2.0 | 0.00 | 0.00 | 0.00 | 24 | 1005.4 |
| 20260906051535 | 74 | 263 | 0.0 | 3.0 | 0.00 | 0.00 | 0.00 | 23 | 1005.4 |
| 20260906051027 | 74 | 265 | 0.0 | 2.0 | 0.00 | 0.00 | 0.00 | 24 | 1005.3 |
| 20260906050510 | 74 | 268 | 0.0 | 1.0 | 0.00 | 0.00 | 0.00 | 24 | 1005.3 |
| 20260906050019 | 74 | 276 | 0.0 | 0.0 | 0.00 | 0.00 | 0.00 | 24 | 1005.2 |
| 20260906045514 | 74 | 276 | 0.0 | 1.0 | 0.00 | 0.00 | 0.00 | 24 | 1005.1 |
| 20260906045004 | 73 | 277 | 0.0 | 0.0 | 0.00 | 0.00 | 0.00 | 24 | 1005.2 |
| 20260906044513 | 73 | 266 | 0.0 | 2.0 | 0.00 | 0.00 | 0.00 | 24 | 1005.2 |
| 20260906044013 | 73 | 271 | 0.0 | 2.0 | 0.00 | 0.00 | 0.00 | 25 | 1005.2 |
| 20260906043457 | 73 | 266 | 0.0 | 2.0 | 0.00 | 0.00 | 0.00 | 25 | 1005.1 |
| 20260906042959 | 73 | 267 | 0.0 | 0.0 | 0.00 | 0.00 | 0.00 | 25 | 1005.1 |
| 20260906042448 | 73 | 267 | 0.0 | 0.0 | 0.00 | 0.00 | 0.00 | 26 | 1005.1 |
| 20260906041955 | 73 | 265 | 0.0 | 0.0 | 0.00 | 0.00 | 0.00 | 25 | 1005.0 |
| 20260906041457 | 73 | 263 | 0.0 | 0.0 | 0.00 | 0.00 | 0.00 | 25 | 1005.0 |
| 20260906040950 | 73 | 263 | 0.0 | 0.0 | 0.00 | 0.00 | 0.00 | 25 | 1004.9 |
| 20260906035807 | 75 | 264 | 0.0 | 0.0 | 0.00 | 0.00 | 0.00 | 24 | 1004.9 |
| 20260906035259 | 75 | 267 | 0.0 | 1.0 | 0.00 | 0.00 | 0.00 | 24 | 1004.8 |
| 20260906034803 | 75 | 265 | 0.0 | 0.0 | 0.00 | 0.00 | 0.00 | 23 | 1004.7 |
| 20260906034248 | 75 | 255 | 0.0 | 1.0 | 0.00 | 0.00 | 0.00 | 24 | 1004.6 |
| 20260906033755 | 75 | 249 | 0.0 | 1.0 | 0.00 | 0.00 | 0.00 | 24 | 1004.7 |
| 20260906033237 | 75 | 241 | 0.0 | 0.0 | 0.00 | 0.00 | 0.00 | 24 | 1004.6 |
| 20260906032744 | 75 | 270 | 0.0 | 0.0 | 0.00 | 0.00 | 0.00 | 24 | 1004.5 |
| 20260906032226 | 75 | 270 | 0.0 | 0.0 | 0.00 | 0.00 | 0.00 | 24 | 1004.4 |
| 20260906031734 | 75 | 271 | 0.0 | 0.0 | 0.00 | 0.00 | 0.00 | 25 | 1004.3 |
| 20260906031230 | 76 | 271 | 0.0 | 0.0 | 0.00 | 0.00 | 0.00 | 24 | 1004.3 |
| 20260906030730 | 77 | 271 | 0.0 | 0.0 | 0.00 | 0.00 | 0.00 | 24 | 1004.3 |
| 20260906030226 | 77 | 271 | 0.0 | 0.0 | 0.00 | 0.00 | 0.00 | 23 | 1004.2 |
| 20260906025722 | 78 | 272 | 0.0 | 0.0 | 0.00 | 0.00 | 0.00 | 21 | 1004.1 |
| 20260906025203 | 79 | 271 | 0.0 | 0.0 | 0.00 | 0.00 | 0.00 | 21 | 1004.1 |
| 20260906024651 | 80 | 271 | 0.0 | 0.0 | 0.00 | 0.00 | 0.00 | 21 | 1003.9 |
| 20260906024201 | 80 | 271 | 0.0 | 0.0 | 0.00 | 0.00 | 0.00 | 20 | 1003.8 |
| 20260906023654 | 81 | 273 | 0.0 | 0.0 | 0.00 | 0.00 | 0.00 | 19 | 1003.7 |
| 20260906023141 | 81 | 273 | 1.0 | 5.0 | 0.00 | 0.00 | 0.00 | 18 | 1003.6 |
| 20260906022651 | 82 | 266 | 1.0 | 7.0 | 0.00 | 0.00 | 0.00 | 18 | 1003.6 |
| 20260906022151 | 82 | 265 | 1.0 | 7.0 | 0.00 | 0.00 | 0.00 | 18 | 1003.5 |
| 20260906021641 | 83 | 268 | 2.0 | 7.0 | 0.00 | 0.00 | 0.00 | 17 | 1003.5 |
| 20260906021144 | 83 | 234 | 2.0 | 7.0 | 0.00 | 0.00 | 0.00 | 17 | 1003.4 |
| 20260906020630 | 83 | 244 | 2.0 | 10.0 | 0.00 | 0.00 | 0.00 | 17 | 1003.4 |
| 20260906020119 | 84 | 268 | 2.0 | 10.0 | 0.00 | 0.00 | 0.00 | 16 | 1003.4 |
| 20260906015611 | 84 | 268 | 3.0 | 10.0 | 0.00 | 0.00 | 0.00 | 16 | 1003.3 |
| 20260906014457 | 85 | 261 | 3.0 | 9.0 | 0.00 | 0.00 | 0.00 | 15 | 1003.4 |
| 20260906014002 | 85 | 261 | 3.0 | 9.0 | 0.00 | 0.00 | 0.00 | 15 | 1003.4 |
| 20260906013448 | 85 | 269 | 3.0 | 9.0 | 0.00 | 0.00 | 0.00 | 15 | 1003.5 |
| 20260906012307 | 86 | 245 | 3.0 | 10.0 | 0.00 | 0.00 | 0.00 | 15 | 1003.5 |
| 20260906011816 | 86 | 262 | 4.0 | 14.0 | 0.00 | 0.00 | 0.00 | 15 | 1003.5 |
| 20260906011309 | 87 | 262 | 4.0 | 14.0 | 0.00 | 0.00 | 0.00 | 15 | 1003.5 |
| 20260906010803 | 87 | 265 | 5.0 | 14.0 | 0.00 | 0.00 | 0.00 | 15 | 1003.6 |
| 20260906010250 | 87 | 248 | 4.0 | 14.0 | 0.00 | 0.00 | 0.00 | 15 | 1003.5 |
| 20260906005741 | 87 | 168 | 4.0 | 17.0 | 0.00 | 0.00 | 0.00 | 16 | 1003.5 |
| 20260906005249 | 87 | 277 | 6.0 | 17.0 | 0.00 | 0.00 | 0.00 | 15 | 1003.5 |
| 20260906004740 | 87 | 267 | 6.0 | 17.0 | 0.00 | 0.00 | 0.00 | 15 | 1003.5 |
| 20260906004222 | 88 | 264 | 5.0 | 17.0 | 0.00 | 0.00 | 0.00 | 15 | 1003.5 |
| 20260906003705 | 88 | 193 | 3.0 | 13.0 | 0.00 | 0.00 | 0.00 | 16 | 1003.5 |
| 20260906003155 | 88 | 250 | 3.0 | 16.0 | 0.00 | 0.00 | 0.00 | 15 | 1003.5 |
| 20260906002635 | 88 | 214 | 6.0 | 16.0 | 0.00 | 0.00 | 0.00 | 15 | 1003.5 |
| 20260906002116 | 88 | 235 | 6.0 | 19.0 | 0.00 | 0.00 | 0.00 | 15 | 1003.5 |
| 20260906001559 | 88 | 169 | 6.0 | 19.0 | 0.00 | 0.00 | 0.00 | 15 | 1003.6 |
| 20260906001057 | 88 | 245 | 7.0 | 19.0 | 0.00 | 0.00 | 0.00 | 14 | 1003.6 |
| 20260906000552 | 88 | 261 | 7.0 | 19.0 | 0.00 | 0.00 | 0.00 | 14 | 1003.5 |
| 20260905235423 | 89 | 275 | 8.0 | 18.0 | 0.00 | 0.00 | 0.00 | 13 | 1003.5 |
| 20260905234930 | 89 | 266 | 5.0 | 14.0 | 0.00 | 0.00 | 0.00 | 14 | 1003.6 |
| 20260905234438 | 89 | 279 | 5.0 | 21.0 | 0.00 | 0.00 | 0.00 | 14 | 1003.6 |
| 20260905233932 | 89 | 285 | 7.0 | 21.0 | 0.00 | 0.00 | 0.00 | 14 | 1003.7 |
| 20260905232806 | 90 | 266 | 7.0 | 17.0 | 0.00 | 0.00 | 0.00 | 13 | 1003.7 |
| 20260905232306 | 89 | 220 | 7.0 | 17.0 | 0.00 | 0.00 | 0.00 | 14 | 1003.8 |
| 20260905231759 | 89 | 270 | 8.0 | 21.0 | 0.00 | 0.00 | 0.00 | 13 | 1003.8 |
| 20260905231305 | 89 | 245 | 9.0 | 21.0 | 0.00 | 0.00 | 0.00 | 13 | 1003.8 |
| 20260905230812 | 89 | 264 | 10.0 | 24.0 | 0.00 | 0.00 | 0.00 | 13 | 1004.0 |
| 20260905225647 | 89 | 253 | 8.0 | 24.0 | 0.00 | 0.00 | 0.00 | 13 | 1004.0 |
| 20260905225134 | 89 | 265 | 8.0 | 24.0 | 0.00 | 0.00 | 0.00 | 13 | 1004.1 |
| 20260905224625 | 89 | 253 | 8.0 | 20.0 | 0.00 | 0.00 | 0.00 | 13 | 1004.1 |
| 20260905224119 | 89 | 159 | 8.0 | 20.0 | 0.00 | 0.00 | 0.00 | 12 | 1004.1 |
| 20260905223602 | 89 | 237 | 8.0 | 20.0 | 0.00 | 0.00 | 0.00 | 13 | 1004.2 |
| 20260905223046 | 89 | 226 | 7.0 | 20.0 | 0.00 | 0.00 | 0.00 | 13 | 1004.5 |
| 20260905221938 | 90 | 160 | 6.0 | 14.0 | 0.00 | 0.00 | 0.00 | 13 | 1004.3 |
| 20260905221446 | 89 | 258 | 5.0 | 14.0 | 0.00 | 0.00 | 0.00 | 12 | 1004.3 |
| 20260905220945 | 89 | 270 | 5.0 | 13.0 | 0.00 | 0.00 | 0.00 | 12 | 1004.3 |
| 20260905220448 | 89 | 246 | 5.0 | 13.0 | 0.00 | 0.00 | 0.00 | 15 | 1004.3 |
| 20260905215325 | 89 | 163 | 5.0 | 17.0 | 0.00 | 0.00 | 0.00 | 14 | 1004.5 |
| 20260905214830 | 89 | 213 | 5.0 | 17.0 | 0.00 | 0.00 | 0.00 | 15 | 1004.6 |
| 20260905214320 | 89 | 156 | 6.0 | 17.0 | 0.00 | 0.00 | 0.00 | 15 | 1004.8 |
| 20260905213827 | 89 | 233 | 6.0 | 15.0 | 0.00 | 0.00 | 0.00 | 16 | 1004.7 |
| 20260905213336 | 89 | 256 | 4.0 | 15.0 | 0.00 | 0.00 | 0.00 | 17 | 1004.8 |
| 20260905212821 | 89 | 150 | 4.0 | 15.0 | 0.00 | 0.00 | 0.00 | 17 | 1004.8 |
| 20260905212324 | 89 | 253 | 4.0 | 15.0 | 0.00 | 0.00 | 0.00 | 16 | 1005.0 |
| 20260905211827 | 89 | 177 | 4.0 | 15.0 | 0.00 | 0.00 | 0.00 | 16 | 1005.0 |
| 20260905211321 | 89 | 231 | 4.0 | 15.0 | 0.00 | 0.00 | 0.00 | 16 | 1005.2 |
| 20260905210810 | 88 | 174 | 6.0 | 15.0 | 0.00 | 0.00 | 0.00 | 17 | 1005.2 |
| 20260905210312 | 88 | 220 | 7.0 | 15.0 | 0.00 | 0.00 | 0.00 | 17 | 1005.2 |
| 20260905203926 | 88 | 178 | 6.0 | 17.0 | 0.00 | 0.00 | 0.00 | 17 | 1005.4 |
| 20260905203421 | 88 | 152 | 6.0 | 16.0 | 0.00 | 0.00 | 0.00 | 17 | 1005.3 |
| 20260905202916 | 87 | 242 | 6.0 | 16.0 | 0.00 | 0.00 | 0.00 | 17 | 1005.3 |
| 20260905202414 | 87 | 158 | 5.0 | 12.0 | 0.00 | 0.00 | 0.00 | 17 | 1005.5 |
| 20260905201914 | 87 | 204 | 4.0 | 13.0 | 0.00 | 0.00 | 0.00 | 18 | 1005.6 |
| 20260905200805 | 87 | 180 | 4.0 | 18.0 | 0.00 | 0.00 | 0.00 | 18 | 1005.7 |
| 20260905200245 | 87 | 193 | 5.0 | 18.0 | 0.00 | 0.00 | 0.00 | 19 | 1005.7 |
| 20260905195727 | 87 | 237 | 5.0 | 18.0 | 0.00 | 0.00 | 0.00 | 18 | 1005.8 |
| 20260905195235 | 87 | 189 | 5.0 | 18.0 | 0.00 | 0.00 | 0.00 | 17 | 1005.9 |
| 20260905194722 | 87 | 159 | 5.0 | 20.0 | 0.00 | 0.00 | 0.00 | 18 | 1005.9 |
| 20260905193556 | 86 | 144 | 5.0 | 20.0 | 0.00 | 0.00 | 0.00 | 18 | 1006.0 |
| 20260905193046 | 86 | 198 | 5.0 | 20.0 | 0.00 | 0.00 | 0.00 | 18 | 1006.1 |
| 20260905192528 | 86 | 113 | 4.0 | 17.0 | 0.00 | 0.00 | 0.00 | 17 | 1006.2 |
| 20260905192017 | 87 | 181 | 4.0 | 14.0 | 0.00 | 0.00 | 0.00 | 18 | 1006.2 |
| 20260905191519 | 86 | 173 | 4.0 | 18.0 | 0.00 | 0.00 | 0.00 | 18 | 1006.3 |
| 20260905190349 | 85 | 189 | 7.0 | 18.0 | 0.00 | 0.00 | 0.00 | 19 | 1006.4 |
| 20260905185835 | 85 | 178 | 6.0 | 17.0 | 0.00 | 0.00 | 0.00 | 18 | 1006.4 |
| 20260905185325 | 86 | 153 | 5.0 | 19.0 | 0.00 | 0.00 | 0.00 | 19 | 1006.7 |
| 20260905184832 | 85 | 145 | 6.0 | 19.0 | 0.00 | 0.00 | 0.00 | 18 | 1006.5 |
| 20260905184314 | 85 | 196 | 6.0 | 19.0 | 0.00 | 0.00 | 0.00 | 20 | 1006.7 |
| 20260905183801 | 85 | 241 | 5.0 | 19.0 | 0.00 | 0.00 | 0.00 | 18 | 1006.7 |
| 20260905183254 | 85 | 153 | 5.0 | 15.0 | 0.00 | 0.00 | 0.00 | 19 | 1006.8 |
| 20260905182129 | 84 | 190 | 5.0 | 15.0 | 0.00 | 0.00 | 0.00 | 20 | 1007.0 |
| 20260905181616 | 84 | 166 | 6.0 | 14.0 | 0.00 | 0.00 | 0.00 | 19 | 1007.0 |
| 20260905181110 | 84 | 194 | 5.0 | 14.0 | 0.00 | 0.00 | 0.00 | 19 | 1007.1 |
| 20260905175947 | 84 | 192 | 4.0 | 12.0 | 0.00 | 0.00 | 0.00 | 19 | 1007.3 |
| 20260905175428 | 84 | 184 | 4.0 | 13.0 | 0.00 | 0.00 | 0.00 | 20 | 1007.3 |
| 20260905174927 | 84 | 228 | 4.0 | 13.0 | 0.00 | 0.00 | 0.00 | 19 | 1007.4 |
| 20260905173741 | 83 | 217 | 3.0 | 14.0 | 0.00 | 0.00 | 0.00 | 20 | 1007.4 |
| 20260905173224 | 83 | 244 | 3.0 | 14.0 | 0.00 | 0.00 | 0.00 | 21 | 1007.5 |
| 20260905172731 | 83 | 185 | 3.0 | 14.0 | 0.00 | 0.00 | 0.00 | 20 | 1007.5 |
| 20260905172231 | 82 | 186 | 3.0 | 14.0 | 0.00 | 0.00 | 0.00 | 22 | 1007.5 |
| 20260905171053 | 81 | 166 | 4.0 | 14.0 | 0.00 | 0.00 | 0.00 | 21 | 1007.6 |
| 20260905170545 | 81 | 238 | 5.0 | 14.0 | 0.00 | 0.00 | 0.00 | 23 | 1007.7 |
| 20260905165444 | 81 | 231 | 7.0 | 16.0 | 0.00 | 0.00 | 0.00 | 22 | 1007.7 |
| 20260905164317 | 80 | 225 | 5.0 | 16.0 | 0.00 | 0.00 | 0.00 | 23 | 1007.6 |
| 20260905163800 | 80 | 232 | 7.0 | 16.0 | 0.00 | 0.00 | 0.00 | 24 | 1007.7 |
| 20260905163250 | 80 | 163 | 7.0 | 16.0 | 0.00 | 0.00 | 0.00 | 22 | 1007.6 |
| 20260905162759 | 80 | 190 | 5.0 | 16.0 | 0.00 | 0.00 | 0.00 | 22 | 1007.6 |
| 20260905162306 | 80 | 188 | 5.0 | 16.0 | 0.00 | 0.00 | 0.00 | 25 | 1007.6 |
| 20260905161804 | 79 | 160 | 6.0 | 16.0 | 0.00 | 0.00 | 0.00 | 23 | 1007.6 |
| 20260905161245 | 80 | 144 | 4.0 | 16.0 | 0.00 | 0.00 | 0.00 | 24 | 1007.6 |
| 20260905160126 | 79 | 200 | 5.0 | 13.0 | 0.00 | 0.00 | 0.00 | 25 | 1007.8 |
| 20260905155003 | 78 | 163 | 6.0 | 17.0 | 0.00 | 0.00 | 0.00 | 26 | 1007.8 |
| 20260905154445 | 78 | 237 | 6.0 | 17.0 | 0.00 | 0.00 | 0.00 | 26 | 1007.8 |
| 20260905153320 | 78 | 273 | 4.0 | 14.0 | 0.00 | 0.00 | 0.00 | 28 | 1007.7 |
| 20260905152819 | 77 | 236 | 4.0 | 14.0 | 0.00 | 0.00 | 0.00 | 28 | 1007.8 |
| 20260905152309 | 77 | 199 | 4.0 | 14.0 | 0.00 | 0.00 | 0.00 | 28 | 1007.8 |
| 20260905151803 | 77 | 182 | 5.0 | 14.0 | 0.00 | 0.00 | 0.00 | 28 | 1007.8 |
| 20260905151309 | 77 | 158 | 4.0 | 13.0 | 0.00 | 0.00 | 0.00 | 28 | 1007.8 |
| 20260905150815 | 76 | 213 | 3.0 | 10.0 | 0.00 | 0.00 | 0.00 | 28 | 1007.8 |
| 20260905150324 | 76 | 273 | 3.0 | 10.0 | 0.00 | 0.00 | 0.00 | 27 | 1007.8 |
| 20260905144553 | 75 | 174 | 4.0 | 12.0 | 0.00 | 0.00 | 0.00 | 29 | 1007.6 |
| 20260905144053 | 74 | 171 | 4.0 | 13.0 | 0.00 | 0.00 | 0.00 | 29 | 1007.6 |
| 20260905142906 | 74 | 243 | 3.0 | 13.0 | 0.00 | 0.00 | 0.00 | 29 | 1007.5 |
| 20260905142408 | 74 | 241 | 4.0 | 13.0 | 0.00 | 0.00 | 0.00 | 29 | 1007.4 |
| 20260905141910 | 74 | 194 | 3.0 | 11.0 | 0.00 | 0.00 | 0.00 | 29 | 1007.4 |
| 20260905141415 | 73 | 246 | 2.0 | 9.0 | 0.00 | 0.00 | 0.00 | 29 | 1007.3 |
| 20260905140911 | 72 | 166 | 2.0 | 7.0 | 0.00 | 0.00 | 0.00 | 30 | 1007.3 |
| 20260905140407 | 72 | 176 | 2.0 | 13.0 | 0.00 | 0.00 | 0.00 | 30 | 1007.3 |
| 20260905135911 | 72 | 274 | 3.0 | 13.0 | 0.00 | 0.00 | 0.00 | 30 | 1007.3 |
| 20260905135417 | 71 | 242 | 4.0 | 13.0 | 0.00 | 0.00 | 0.00 | 29 | 1007.1 |
| 20260905134926 | 71 | 169 | 4.0 | 13.0 | 0.00 | 0.00 | 0.00 | 29 | 1007.1 |
| 20260905134406 | 70 | 259 | 4.0 | 10.0 | 0.00 | 0.00 | 0.00 | 29 | 1007.1 |
| 20260905133249 | 69 | 180 | 3.0 | 8.0 | 0.00 | 0.00 | 0.00 | 29 | 1007.1 |
| 20260905132110 | 67 | 223 | 2.0 | 6.0 | 0.00 | 0.00 | 0.00 | 31 | 1006.9 |
| 20260905131603 | 66 | 170 | 1.0 | 4.0 | 0.00 | 0.00 | 0.00 | 31 | 1006.8 |
| 20260905131055 | 66 | 215 | 1.0 | 4.0 | 0.00 | 0.00 | 0.00 | 32 | 1006.7 |
| 20260905130538 | 66 | 261 | 1.0 | 4.0 | 0.00 | 0.00 | 0.00 | 33 | 1006.7 |
| 20260905130033 | 66 | 240 | 1.0 | 4.0 | 0.00 | 0.00 | 0.00 | 33 | 1006.5 |
| 20260905124859 | 66 | 235 | 0.0 | 4.0 | 0.00 | 0.00 | 0.00 | 34 | 1006.3 |
| 20260905124349 | 66 | 253 | 1.0 | 4.0 | 0.00 | 0.00 | 0.00 | 34 | 1006.3 |
| 20260905123841 | 66 | 199 | 1.0 | 4.0 | 0.00 | 0.00 | 0.00 | 34 | 1006.3 |
| 20260905122735 | 66 | 216 | 0.0 | 2.0 | 0.00 | 0.00 | 0.00 | 35 | 1006.1 |
| 20260905122230 | 67 | 229 | 0.0 | 2.0 | 0.00 | 0.00 | 0.00 | 35 | 1006.1 |
| 20260905121740 | 67 | 228 | 0.0 | 2.0 | 0.00 | 0.00 | 0.00 | 36 | 1006.0 |
| 20260905121224 | 67 | 229 | 0.0 | 2.0 | 0.00 | 0.00 | 0.00 | 36 | 1006.0 |
| 20260905120711 | 67 | 234 | 0.0 | 2.0 | 0.00 | 0.00 | 0.00 | 36 | 1006.0 |
| 20260905120206 | 67 | 173 | 0.0 | 2.0 | 0.00 | 0.00 | 0.00 | 36 | 1006.0 |